Regional Weather Roundup
Issued by NWS Goodland, KS

Home | Current Version | Previous Version | Graphics & Text | Print | Product List | Glossary On
Versions: 1 2 3 4 5 6 7 8 9 10 11 12 13 14 15 16 17 18 19 20 21 22 23 24 25 26 27 28 29 30 31 32 33 34 35 36 37 38 39 40 41 42 43 44 45 46 47 48 49 50
000
ASUS43 KGLD 181508
RWRGLD

GOODLAND FORECAST AREA HOURLY WEATHER ROUNDUP
NATIONAL WEATHER SERVICE GOODLAND KS
900 AM MDT WED APR 18 2018

...OFFICIAL OBSERVATIONS...

CITY           SKY/WX    TMP DP  RH WIND       PRES   REMARKS
GOODLAND KS    SUNNY     48  23  37 NW31G43   30.14R
HILL CITY KS   SUNNY     51  30  44 NW30G43   30.07R
IMPERIAL NEB   SUNNY     45  29  53 NW26G41   30.14R
MCCOOK NEB     SUNNY     48  33  56 NW30G41   30.08R
AKRON CO       SUNNY     43  20  39 N35G45    30.20R
BURLINGTON CO  SUNNY     47  21  35 NW29G41   30.19R
LIMON CO       SUNNY     42  11  28 NW26G35   30.23R
$$

...UNOFFICIAL OBSERVATIONS...

CITY           SKY/WX    TMP DP  RH WIND       PRES   REMARKS
COLBY KS       SUNNY     46  30  53 N30G37    30.13R
NORTON KS      MOSUNNY   48  34  57 NW29G36   30.06
SHARON SPRINGS   N/A     49  23  35 NW29G41     N/A
KIT CARSON CO    N/A     46  19  34 MISG        N/A
YUMA CO        FAIR      43  21  42 NW28G36   30.18S
$$




USA.gov is the U.S. government's official web portal to all federal, state and local government web resources and services.